TimeCST,TemperatureF,Dew PointF,Humidity,Sea Level PressureIn,VisibilityMPH,Wind Direction,Wind SpeedMPH,Gust SpeedMPH,PrecipitationIn,Events,Conditions,WindDirDegrees,DateUTC
12:15 AM,42.8,23.0,46,29.81,10.0,SSW,13.8,-,N/A,,Clear,200,2014-02-18 06:15:00
12:35 AM,42.8,23.0,46,29.80,10.0,SSW,15.0,-,N/A,,Clear,200,2014-02-18 06:35:00
12:55 AM,42.8,24.8,49,29.80,10.0,SSW,13.8,-,N/A,,Clear,200,2014-02-18 06:55:00
1:15 AM,41.0,23.0,49,29.80,10.0,SSW,15.0,-,N/A,,Clear,210,2014-02-18 07:15:00
1:35 AM,41.0,24.8,53,29.78,10.0,SSW,15.0,-,N/A,,Clear,200,2014-02-18 07:35:00
1:55 AM,41.0,24.8,53,29.77,10.0,SSW,13.8,-,N/A,,Clear,200,2014-02-18 07:55:00
2:15 AM,41.0,24.8,53,29.75,10.0,SSW,15.0,-,N/A,,Clear,200,2014-02-18 08:15:00
2:35 AM,41.0,24.8,53,29.74,10.0,SSW,16.1,-,N/A,,Clear,200,2014-02-18 08:35:00
2:55 AM,41.0,24.8,53,29.73,10.0,SSW,16.1,-,N/A,,Clear,200,2014-02-18 08:55:00
3:15 AM,41.0,24.8,53,29.72,10.0,South,13.8,20.7,N/A,,Clear,190,2014-02-18 09:15:00
3:35 AM,41.0,24.8,53,29.72,10.0,South,12.7,19.6,N/A,,Clear,190,2014-02-18 09:35:00
3:55 AM,41.0,24.8,53,29.71,10.0,SSW,11.5,-,N/A,,Clear,200,2014-02-18 09:55:00
4:15 AM,41.0,24.8,53,29.70,10.0,South,13.8,-,N/A,,Clear,190,2014-02-18 10:15:00
4:35 AM,39.2,24.8,56,29.69,10.0,South,12.7,-,N/A,,Clear,190,2014-02-18 10:35:00
4:55 AM,39.2,24.8,56,29.67,10.0,South,12.7,-,N/A,,Clear,190,2014-02-18 10:55:00
5:15 AM,41.0,24.8,53,29.67,10.0,SSW,15.0,-,N/A,,Clear,200,2014-02-18 11:15:00
5:35 AM,41.0,24.8,53,29.66,10.0,SSW,16.1,-,N/A,,Clear,200,2014-02-18 11:35:00
5:55 AM,41.0,24.8,53,29.66,10.0,SSW,13.8,-,N/A,,Clear,200,2014-02-18 11:55:00
6:15 AM,41.0,24.8,53,29.66,10.0,SSW,16.1,-,N/A,,Clear,210,2014-02-18 12:15:00
6:35 AM,41.0,24.8,53,29.65,10.0,SSW,15.0,23.0,N/A,,Clear,210,2014-02-18 12:35:00
6:55 AM,39.2,24.8,56,29.64,10.0,SSW,13.8,-,N/A,,Clear,210,2014-02-18 12:55:00
7:15 AM,39.2,24.8,56,29.65,10.0,SW,13.8,-,N/A,,Clear,220,2014-02-18 13:15:00
7:35 AM,39.2,24.8,56,29.65,10.0,SW,12.7,-,N/A,,Clear,220,2014-02-18 13:35:00
7:55 AM,41.0,24.8,53,29.65,10.0,SW,11.5,-,N/A,,Clear,220,2014-02-18 13:55:00
8:15 AM,41.0,26.6,57,29.65,10.0,SW,10.4,16.1,N/A,,Clear,220,2014-02-18 14:15:00
8:35 AM,41.0,26.6,57,29.64,10.0,SSW,11.5,-,N/A,,Clear,210,2014-02-18 14:35:00
8:55 AM,41.0,26.6,57,29.63,10.0,SSW,15.0,-,N/A,,Clear,210,2014-02-18 14:55:00
9:15 AM,44.6,26.6,49,29.64,10.0,SW,13.8,-,N/A,,Clear,230,2014-02-18 15:15:00
9:35 AM,44.6,26.6,49,29.62,10.0,SW,11.5,-,N/A,,Clear,230,2014-02-18 15:35:00
9:55 AM,48.2,26.6,43,29.62,10.0,SW,10.4,-,N/A,,Clear,230,2014-02-18 15:55:00
10:15 AM,48.2,28.4,46,29.62,10.0,SW,9.2,-,N/A,,Clear,230,2014-02-18 16:15:00
10:35 AM,51.8,26.6,38,29.63,10.0,WSW,11.5,-,N/A,,Clear,250,2014-02-18 16:35:00
10:55 AM,53.6,26.6,35,29.63,10.0,WSW,15.0,-,N/A,,Clear,250,2014-02-18 16:55:00
11:15 AM,55.4,26.6,33,29.63,10.0,WSW,13.8,20.7,N/A,,Clear,250,2014-02-18 17:15:00
11:35 AM,57.2,26.6,31,29.63,10.0,West,15.0,-,N/A,,Clear,260,2014-02-18 17:35:00
11:55 AM,59.0,26.6,29,29.63,10.0,West,11.5,-,N/A,,Clear,260,2014-02-18 17:55:00
12:15 PM,59.0,26.6,29,29.62,10.0,West,13.8,-,N/A,,Clear,270,2014-02-18 18:15:00
12:35 PM,60.8,26.6,27,29.62,10.0,West,11.5,-,N/A,,Clear,260,2014-02-18 18:35:00
12:55 PM,62.6,26.6,26,29.61,10.0,West,10.4,19.6,N/A,,Clear,270,2014-02-18 18:55:00
1:15 PM,62.6,26.6,26,29.61,10.0,West,12.7,-,N/A,,Clear,280,2014-02-18 19:15:00
1:35 PM,62.6,24.8,24,29.61,10.0,West,10.4,18.4,N/A,,Clear,280,2014-02-18 19:35:00
1:55 PM,60.8,24.8,25,29.61,10.0,WNW,11.5,-,N/A,,Clear,290,2014-02-18 19:55:00
2:15 PM,59.0,26.6,29,29.61,10.0,NW,6.9,-,N/A,,Clear,310,2014-02-18 20:15:00
2:35 PM,59.0,26.6,29,29.61,10.0,NW,9.2,15.0,N/A,,Clear,310,2014-02-18 20:35:00
2:55 PM,60.8,26.6,27,29.62,10.0,West,13.8,19.6,N/A,,Clear,270,2014-02-18 20:55:00
3:15 PM,62.6,26.6,26,29.63,10.0,West,15.0,-,N/A,,Clear,280,2014-02-18 21:15:00
3:35 PM,62.6,26.6,26,29.64,10.0,WNW,17.3,-,N/A,,Clear,290,2014-02-18 21:35:00
3:55 PM,62.6,26.6,26,29.65,10.0,WNW,12.7,26.5,N/A,,Clear,300,2014-02-18 21:55:00
4:15 PM,62.6,28.4,27,29.66,10.0,WNW,11.5,21.9,N/A,,Clear,300,2014-02-18 22:15:00
4:35 PM,59.0,26.6,29,29.67,10.0,NW,26.5,36.8,N/A,,Clear,320,2014-02-18 22:35:00
4:55 PM,57.2,28.4,33,29.70,10.0,NW,25.3,39.1,N/A,,Clear,320,2014-02-18 22:55:00
5:15 PM,55.4,30.2,38,29.72,10.0,NW,20.7,29.9,N/A,,Clear,320,2014-02-18 23:15:00
5:35 PM,55.4,32.0,41,29.74,10.0,NW,25.3,36.8,N/A,,Clear,320,2014-02-18 23:35:00
5:55 PM,53.6,30.2,41,29.77,10.0,NNW,17.3,34.5,N/A,,Clear,330,2014-02-18 23:55:00
6:15 PM,51.8,30.2,44,29.79,10.0,NNW,16.1,25.3,N/A,,Mostly Cloudy,330,2014-02-19 00:15:00
6:35 PM,50.0,30.2,47,29.81,10.0,NNW,13.8,23.0,N/A,,Scattered Clouds,330,2014-02-19 00:35:00
6:55 PM,50.0,30.2,47,29.83,10.0,NW,12.7,-,N/A,,Clear,320,2014-02-19 00:55:00
7:15 PM,48.2,30.2,50,29.85,10.0,NW,11.5,-,N/A,,Clear,320,2014-02-19 01:15:00
7:35 PM,48.2,30.2,50,29.85,10.0,NW,10.4,-,N/A,,Clear,320,2014-02-19 01:35:00
7:55 PM,46.4,30.2,53,29.85,10.0,NW,9.2,-,N/A,,Clear,310,2014-02-19 01:55:00
8:15 PM,44.6,30.2,57,29.86,10.0,WNW,8.1,-,N/A,,Clear,300,2014-02-19 02:15:00
8:35 PM,44.6,30.2,57,29.86,10.0,WNW,9.2,-,N/A,,Clear,300,2014-02-19 02:35:00
8:55 PM,44.6,28.4,53,29.87,10.0,NW,11.5,-,N/A,,Clear,310,2014-02-19 02:55:00
9:15 PM,44.6,26.6,49,29.88,10.0,NW,12.7,-,N/A,,Clear,310,2014-02-19 03:15:00
9:35 PM,44.6,28.4,53,29.88,10.0,NW,15.0,20.7,N/A,,Clear,320,2014-02-19 03:35:00
9:55 PM,44.6,28.4,53,29.89,10.0,NW,20.7,26.5,N/A,,Clear,310,2014-02-19 03:55:00
10:15 PM,44.6,28.4,53,29.90,10.0,NW,16.1,21.9,N/A,,Clear,310,2014-02-19 04:15:00
10:35 PM,42.8,30.2,61,29.91,10.0,NW,13.8,21.9,N/A,,Clear,320,2014-02-19 04:35:00
10:55 PM,42.8,30.2,61,29.91,10.0,NW,12.7,23.0,N/A,,Clear,320,2014-02-19 04:55:00
11:15 PM,41.0,30.2,65,29.92,10.0,NW,12.7,-,N/A,,Clear,310,2014-02-19 05:15:00
11:55 PM,39.2,30.2,70,29.91,10.0,NNW,9.2,16.1,N/A,,Clear,330,2014-02-19 05:55:00